SCP
-0 0 -0 -0 0 0 0 0 0 0 0 0 0 0 0 -0 -0 -0 -0 0 0 0 0 0 0 0 0 0 0 0 0 0 0 0 0 0 0 0 0 0 0 0 0
0 0 -0 -0 0 0 0 0 0 0 0 0 0 -0 -0 -0 -0 -0 -0 0 0 0 -0 -0 0 0 0 0 0 1 1 1 0 0 0 0 0 0 0 0 0 0 0
-0 -0 -0 -0 0 0 0 0 0 0 0 0 0 0 -0 -0 -0 -0 -0 -0 0 0 -0 -0 0 0 0 0 0 1 1 1 1 0 0 0 0 0 0 0 0 0 0
0 -0 -0 -0 0 0 0 0 0 0 0 0 0 0 0 -0 0 0 -0 -0 -0 0 -0 -0 0 0 0 1 1 1 1 1 1 0 0 0 0 0 0 0 0 0 0
-0 -0 -0 -0 -0 -0 0 0 0 0 0 -0 0 0 -0 -0 0 0 0 -0 0 -0 -0 0 0 0 1 1 1 1 1 1 1 0 0 0 0 0 0 0 0 0 0
-0 0 0 -0 -0 -0 0 0 0 0 0 -0 0 -0 -0 -0 -0 0 0 -0 0 0 -0 0 0 0 1 1 1 1 1 1 0 0 0 0 0 0 0 0 0 0 0
-0 -0 0 -0 -0 -0 -0 0 0 0 -0 -0 0 -0 -0 -0 -0 -0 -0 0 0 -0 -0 0 0 0 1 1 2 2 2 2 0 1 1 0 0 0 0 0 0 0 0
-0 -0 -0 -0 -0 -0 -0 -0 -0 -0 -0 -0 -0 -0 -0 -0 -0 -0 -0 -0 -0 -0 -0 -0 -0 0 0 1 2 1 1 2 1 0 1 1 1 0 0 0 0 0 0
-0 -0 -0 -0 -0 -0 -0 -0 -0 -0 -0 -0 -0 0 0 -0 -0 -0 -0 -0 -0 0 -0 -0 -0 0 0 1 1 1 1 0 0 1 0 0 0 0 0 0 0 0 0
0 0 -0 -0 -0 -0 -0 -0 -0 -0 -0 -0 0 0 -0 -0 -0 -0 -0 -0 0 0 0 0 0 0 0 1 1 1 1 0 0 0 0 0 0 0 0 0 0 0 0
0 0 -0 -0 -0 0 0 0 -0 -0 0 -0 0 0 0 0 0 -0 -0 0 0 0 0 0 0 0 0 1 1 1 1 0 0 0 0 0 0 0 0 0 0 0 0
0 0 0 0 -0 -0 0 -0 -0 -0 0 -0 -0 -0 0 0 0 0 -0 -0 0 0 0 0 0 0 1 1 2 1 1 0 0 0 0 0 0 0 0 0 0 0 0
0 0 0 0 0 0 0 0 0 -0 0 0 -0 0 0 0 0 0 0 0 0 0 0 0 0 0 1 1 2 1 0 0 0 0 0 0 0 0 0 0 0 0 0
0 0 0 0 0 0 0 0 0 0 0 0 0 0 0 0 0 0 0 0 0 0 0 0 0 1 1 1 1 0 0 0 0 0 0 0 0 0 0 0 0 0 0
0 0 0 0 0 0 0 0 0 0 0 0 0 0 0 0 0 0 0 0 0 0 0 0 1 1 2 1 0 0 0 0 0 0 0 0 0 0 0 0 0 0 0
0 0 0 0 -0 0 0 0 0 0 0 0 0 0 0 0 0 0 0 0 0 0 0 1 1 1 2 1 0 0 0 0 0 0 0 0 0 0 0 0 0 0 0
0 -0 -0 -0 -0 0 0 0 0 0 0 0 0 0 0 0 0 0 0 0 0 0 0 1 1 1 0 0 0 0 0 0 0 0 0 0 0 0 0 0 0 0 0
0 0 0 0 0 0 0 0 0 0 0 0 0 0 0 0 0 0 -0 -0 0 0 1 1 1 0 0 0 0 0 0 0 0 0 0 0 0 0 0 0 0 0 0
0 1 0 0 0 0 0 0 0 0 0 0 0 0 0 0 0 -0 -0 -0 0 0 1 1 1 0 0 0 0 0 0 0 0 0 0 0 0 0 0 0 0 0 0
1 0 0 0 0 0 0 0 0 -0 0 0 0 0 0 0 -0 -0 -0 -0 0 0 0 1 0 0 0 0 0 0 0 0 0 0 0 0 0 0 0 0 0 0 0
2 2 1 1 0 0 0 0 0 0 0 0 0 0 0 0 0 0 0 0 0 0 0 0 0 0 0 0 0 0 0 0 0 0 0 0 0 0 0 0 0 0 0
1 2 4 3 1 0 0 -0 0 0 0 0 0 0 0 0 1 0 0 0 0 0 0 0 0 0 0 0 0 0 0 0 0 0 0 0 0 0 0 0 0 0 0
0 2 3 4 2 1 0 -0 0 1 1 1 0 0 1 1 1 1 1 1 1 1 0 0 0 0 0 0 0 0 0 0 0 0 0 0 0 0 0 0 0 0 0
0 0 1 1 1 1 2 1 0 1 1 1 1 2 2 2 2 2 2 2 1 1 0 0 0 0 0 0 0 0 0 0 0 0 0 0 0 0 0 0 0 0 0
0 0 0 0 0 0 1 1 1 1 1 1 2 3 3 2 2 2 1 2 1 1 0 0 0 0 0 0 0 0 0 0 0 0 0 0 0 0 0 0 0 0 0
0 0 0 0 0 1 1 1 1 1 1 1 2 2 3 2 0 0 0 0 0 0 0 0 0 0 0 0 0 0 0 0 0 0 0 0 0 0 0 0 0 0 0
Wind_Speed_500mb
74 69 69 70 69 62 61 55 48 43 44 50 49 46 41 33 31 26 16 11 17 15 9 13 32 40 39 31 30 27 31 34 36 35 34 24 18 24 26 38 30 14 25
76 71 69 74 77 70 66 60 52 47 49 50 53 48 49 44 37 35 27 14 12 15 18 14 14 20 27 35 35 36 37 38 32 33 31 28 33 17 28 30 24 24 35
84 85 78 77 81 83 74 63 55 52 52 50 56 51 50 52 49 46 37 23 18 17 22 19 18 22 26 29 32 34 37 37 34 30 28 21 20 38 23 30 14 26 33
81 90 90 84 85 88 79 70 60 53 51 47 54 59 47 54 44 46 40 35 27 24 27 27 24 28 32 29 27 30 34 34 30 27 26 31 34 22 20 30 23 23 18
86 92 96 95 90 85 86 76 66 58 51 52 52 50 53 52 45 39 47 45 36 27 27 27 31 33 37 36 31 27 32 30 27 24 27 27 33 26 28 37 42 12 11
86 93 93 93 93 89 86 82 74 65 58 52 53 53 52 50 49 47 48 43 36 30 26 23 29 39 38 33 37 28 25 21 22 21 28 29 35 28 34 36 31 6 9
83 89 93 98 98 98 94 88 82 75 66 59 54 53 54 50 49 50 51 47 43 40 34 30 29 25 27 26 31 36 39 20 37 24 31 24 26 31 41 38 25 6 4
90 95 104 104 102 101 100 91 86 81 74 66 58 51 51 53 52 49 50 52 50 46 41 38 36 32 28 32 38 40 42 36 40 31 27 26 29 36 36 29 23 8 7
78 88 96 104 103 102 103 100 84 84 77 69 61 55 49 51 55 53 51 51 49 48 46 43 40 41 42 46 55 49 44 54 51 40 41 40 46 24 22 18 16 11 9
73 78 85 99 101 101 100 100 97 85 67 68 66 61 50 47 51 54 55 54 50 47 45 46 46 46 48 51 46 43 46 58 60 59 46 33 22 19 23 13 9 11 12
70 77 87 94 96 98 98 98 99 84 84 70 58 65 56 48 46 52 55 54 52 51 50 48 49 51 54 49 48 46 45 53 55 62 52 25 26 21 16 7 11 14 16
68 75 85 91 92 96 93 95 94 95 84 75 66 51 53 50 47 47 46 44 46 47 49 52 53 51 47 45 49 48 42 41 47 54 41 25 23 17 8 11 18 18 15
52 62 66 81 88 91 91 91 91 88 85 73 73 59 51 50 48 45 42 41 40 40 42 46 44 42 37 35 37 33 29 28 35 29 12 12 10 7 7 15 17 19 16
55 62 65 78 85 87 89 89 86 82 74 72 73 66 54 49 46 42 42 41 41 40 38 36 33 30 26 26 27 22 23 23 21 10 9 4 1 4 8 14 16 13 12
44 48 70 78 82 83 85 85 82 75 67 65 65 62 49 47 44 45 41 39 39 34 30 28 26 21 15 23 20 19 17 11 6 13 10 6 2 5 10 13 10 13 18
71 64 62 73 80 82 84 79 76 69 62 57 51 46 47 47 44 40 36 34 33 28 27 24 17 9 18 19 19 12 6 3 15 13 13 8 7 5 8 7 12 17 21
23 50 62 59 73 76 78 71 62 60 56 46 44 46 43 41 38 35 35 32 29 26 22 14 9 19 17 16 13 8 4 10 15 15 8 7 5 7 6 7 11 17 21
3 18 32 41 56 68 69 59 55 46 50 48 42 38 36 36 36 34 33 29 27 25 17 10 20 19 15 14 9 8 10 13 18 14 14 6 5 4 3 9 16 20 21
6 7 19 33 50 59 58 55 54 48 52 49 40 35 35 35 34 34 29 27 27 24 20 18 21 18 15 13 11 11 14 18 18 15 11 6 3 4 10 14 17 19 19
12 11 12 29 39 50 52 51 53 55 53 50 38 31 30 33 34 30 30 30 29 25 21 23 21 18 15 17 14 15 15 19 18 18 11 8 4 9 16 14 16 16 19
22 19 23 21 31 43 49 50 48 52 45 39 36 36 34 33 33 36 37 35 33 30 26 27 24 21 17 20 18 15 17 13 17 15 15 10 13 18 18 14 15 13 20
41 34 33 31 32 42 45 52 49 38 39 41 43 42 42 43 44 44 43 41 40 36 32 35 30 28 27 25 22 26 13 12 10 19 17 16 19 18 16 17 15 15 18
37 36 42 39 32 30 33 35 30 33 36 41 45 47 46 49 47 46 46 46 47 43 40 41 38 39 36 34 34 30 20 18 20 20 19 21 22 19 18 19 16 16 16
21 24 29 32 29 29 29 30 32 34 36 36 36 39 44 46 44 43 47 51 53 48 47 46 47 47 50 48 48 40 33 29 28 24 25 24 24 24 18 20 16 17 14
15 12 15 25 24 20 21 25 28 29 28 28 32 36 41 44 45 48 52 52 47 43 48 51 56 60 59 59 48 43 35 29 26 27 28 27 28 31 26 20 20 22 21
24 16 10 8 14 15 19 23 24 23 20 20 22 26 34 38 43 48 51 51 42 33 38 35 45 48 36 50 46 39 32 28 24 28 29 29 31 32 31 28 26 21 19
Wind_Direction_500mb
207 207 216 216 213 213 211 211 211 211 212 213 210 207 212 213 216 222 225 268 213 221 288 320 260 265 280 287 295 307 314 317 326 330 335 349 318 267 276 316 298 300 311
205 211 210 215 216 216 216 216 216 218 218 221 219 218 215 219 228 232 240 253 233 231 256 303 322 299 294 283 291 301 308 318 324 326 340 338 337 319 298 309 303 316 321
206 211 214 216 217 216 218 219 220 220 222 226 220 224 223 224 228 231 238 242 246 250 267 290 324 326 324 312 304 311 319 318 321 326 329 332 316 321 333 321 302 314 305
210 212 216 218 219 220 221 221 222 223 226 225 219 221 224 223 228 230 230 238 249 268 274 279 299 314 320 335 334 332 327 321 324 327 330 334 330 309 320 332 330 327 311
210 213 217 221 222 222 221 223 224 226 229 227 224 223 226 227 229 230 231 237 244 267 266 270 285 301 305 312 321 326 329 329 328 327 324 336 346 326 320 323 337 347 347
214 217 219 221 223 224 224 224 225 228 230 230 230 230 231 230 228 222 224 237 245 258 264 276 293 301 303 321 311 313 309 316 329 312 314 321 339 329 325 315 323 350 45
211 212 217 220 222 221 224 225 227 229 232 232 235 235 237 235 236 235 238 247 249 254 266 279 286 290 296 307 306 271 262 277 318 301 303 303 336 331 328 318 325 298 228
213 211 219 223 222 224 225 227 229 230 233 235 237 240 241 242 243 244 243 248 253 255 262 271 272 282 286 293 291 296 280 276 307 301 294 300 309 317 325 319 324 306 234
213 210 212 221 224 225 227 228 231 232 235 237 239 241 245 246 247 249 250 251 255 258 260 260 265 276 283 291 299 298 289 285 298 304 311 318 316 327 320 317 317 314 303
214 210 210 218 225 228 230 231 232 234 237 239 239 241 245 250 252 253 254 256 257 259 263 262 267 275 282 291 291 298 290 288 298 296 305 318 346 337 328 321 307 304 308
219 211 211 223 227 228 228 232 232 232 235 234 238 240 242 246 253 255 256 258 263 263 266 270 274 279 286 289 283 287 291 286 292 296 305 293 325 326 320 333 324 324 310
225 216 217 221 220 226 227 231 233 233 234 235 235 239 241 244 248 252 257 261 264 268 271 275 278 282 285 283 287 290 293 292 288 288 295 270 312 320 316 323 321 324 337
225 219 210 218 220 222 229 230 233 234 236 236 236 236 236 239 245 249 255 261 267 272 275 276 280 285 289 293 292 294 294 296 295 299 248 258 290 304 293 322 333 347 1
219 220 211 218 223 224 227 230 232 234 235 235 235 234 236 238 243 250 255 263 268 273 279 279 280 285 294 283 290 289 288 287 321 89 136 194 220 240 339 347 352 11 34
207 221 222 221 224 224 225 230 230 232 234 232 233 233 234 237 243 249 255 261 267 272 276 275 282 298 288 287 293 279 276 294 106 122 139 111 138 10 6 6 37 60 70
224 225 222 219 221 224 224 226 228 229 232 230 229 229 232 236 238 242 246 255 264 268 268 273 286 287 280 286 289 285 270 88 119 135 137 123 87 26 20 62 97 80 62
150 206 213 223 225 224 222 220 225 227 224 224 224 225 225 227 228 235 246 254 260 265 267 273 265 263 268 270 273 280 211 132 126 127 148 128 93 47 47 112 95 73 65
119 186 214 227 230 223 225 223 216 214 212 211 209 212 214 220 228 239 247 250 254 260 264 242 252 256 252 262 249 218 166 147 141 157 144 94 82 79 79 106 92 75 57
209 197 227 244 235 225 222 214 208 202 207 207 206 210 218 227 234 238 241 246 252 250 243 241 247 248 240 233 203 187 169 157 165 154 142 124 99 123 116 99 84 72 60
202 201 193 225 228 223 214 205 205 206 209 213 209 211 220 232 237 237 242 246 245 242 226 229 234 229 222 191 187 181 171 173 180 160 155 148 158 144 124 102 78 72 63
141 142 143 188 199 207 203 204 207 213 223 226 226 232 233 236 242 246 246 244 238 233 217 220 212 209 202 183 175 171 165 172 167 165 163 169 155 140 130 114 100 69 67
116 135 137 163 187 205 208 212 219 227 233 238 240 242 245 247 248 248 246 234 231 227 209 212 200 198 189 182 171 158 175 157 174 161 165 161 148 143 134 126 112 78 74
116 122 141 135 147 172 194 211 218 231 239 243 247 249 250 249 249 243 237 225 224 221 207 205 198 190 182 173 166 172 177 163 168 161 162 158 151 150 137 125 96 82 77
95 121 150 153 155 165 180 194 208 220 233 241 247 251 250 247 242 235 230 226 220 216 207 202 197 190 182 180 174 178 174 167 173 169 163 157 160 162 153 134 116 103 91
57 90 129 161 182 189 196 199 203 212 221 231 241 247 249 245 238 229 226 227 232 236 218 212 200 192 192 188 185 179 173 169 174 172 167 160 162 167 167 155 137 114 104
34 45 64 134 166 192 194 197 205 209 216 237 249 251 243 237 235 234 224 221 226 231 223 241 209 201 206 187 180 176 175 171 176 175 168 163 172 172 167 162 150 135 116
Wind_Speed_850mb
74 69 69 70 69 62 61 55 48 43 44 50 49 46 41 33 31 26 16 11 17 15 9 13 32 40 39 31 30 27 31 34 36 35 34 24 18 24 26 38 30 14 25
76 71 69 74 77 70 66 60 52 47 49 50 53 48 49 44 37 35 27 14 12 15 18 14 14 20 27 35 35 36 37 38 32 33 31 28 33 17 28 30 24 24 35
84 85 78 77 81 83 74 63 55 52 52 50 56 51 50 52 49 46 37 23 18 17 22 19 18 22 26 29 32 34 37 37 34 30 28 21 20 38 23 30 14 26 33
81 90 90 84 85 88 79 70 60 53 51 47 54 59 47 54 44 46 40 35 27 24 27 27 24 28 32 29 27 30 34 34 30 27 26 31 34 22 20 30 23 23 18
86 92 96 95 90 85 86 76 66 58 51 52 52 50 53 52 45 39 47 45 36 27 27 27 31 33 37 36 31 27 32 30 27 24 27 27 33 26 28 37 42 12 11
86 93 93 93 93 89 86 82 74 65 58 52 53 53 52 50 49 47 48 43 36 30 26 23 29 39 38 33 37 28 25 21 22 21 28 29 35 28 34 36 31 6 9
83 89 93 98 98 98 94 88 82 75 66 59 54 53 54 50 49 50 51 47 43 40 34 30 29 25 27 26 31 36 39 20 37 24 31 24 26 31 41 38 25 6 4
90 95 104 104 102 101 100 91 86 81 74 66 58 51 51 53 52 49 50 52 50 46 41 38 36 32 28 32 38 40 42 36 40 31 27 26 29 36 36 29 23 8 7
78 88 96 104 103 102 103 100 84 84 77 69 61 55 49 51 55 53 51 51 49 48 46 43 40 41 42 46 55 49 44 54 51 40 41 40 46 24 22 18 16 11 9
73 78 85 99 101 101 100 100 97 85 67 68 66 61 50 47 51 54 55 54 50 47 45 46 46 46 48 51 46 43 46 58 60 59 46 33 22 19 23 13 9 11 12
70 77 87 94 96 98 98 98 99 84 84 70 58 65 56 48 46 52 55 54 52 51 50 48 49 51 54 49 48 46 45 53 55 62 52 25 26 21 16 7 11 14 16
68 75 85 91 92 96 93 95 94 95 84 75 66 51 53 50 47 47 46 44 46 47 49 52 53 51 47 45 49 48 42 41 47 54 41 25 23 17 8 11 18 18 15
52 62 66 81 88 91 91 91 91 88 85 73 73 59 51 50 48 45 42 41 40 40 42 46 44 42 37 35 37 33 29 28 35 29 12 12 10 7 7 15 17 19 16
55 62 65 78 85 87 89 89 86 82 74 72 73 66 54 49 46 42 42 41 41 40 38 36 33 30 26 26 27 22 23 23 21 10 9 4 1 4 8 14 16 13 12
44 48 70 78 82 83 85 85 82 75 67 65 65 62 49 47 44 45 41 39 39 34 30 28 26 21 15 23 20 19 17 11 6 13 10 6 2 5 10 13 10 13 18
71 64 62 73 80 82 84 79 76 69 62 57 51 46 47 47 44 40 36 34 33 28 27 24 17 9 18 19 19 12 6 3 15 13 13 8 7 5 8 7 12 17 21
23 50 62 59 73 76 78 71 62 60 56 46 44 46 43 41 38 35 35 32 29 26 22 14 9 19 17 16 13 8 4 10 15 15 8 7 5 7 6 7 11 17 21
3 18 32 41 56 68 69 59 55 46 50 48 42 38 36 36 36 34 33 29 27 25 17 10 20 19 15 14 9 8 10 13 18 14 14 6 5 4 3 9 16 20 21
6 7 19 33 50 59 58 55 54 48 52 49 40 35 35 35 34 34 29 27 27 24 20 18 21 18 15 13 11 11 14 18 18 15 11 6 3 4 10 14 17 19 19
12 11 12 29 39 50 52 51 53 55 53 50 38 31 30 33 34 30 30 30 29 25 21 23 21 18 15 17 14 15 15 19 18 18 11 8 4 9 16 14 16 16 19
22 19 23 21 31 43 49 50 48 52 45 39 36 36 34 33 33 36 37 35 33 30 26 27 24 21 17 20 18 15 17 13 17 15 15 10 13 18 18 14 15 13 20
41 34 33 31 32 42 45 52 49 38 39 41 43 42 42 43 44 44 43 41 40 36 32 35 30 28 27 25 22 26 13 12 10 19 17 16 19 18 16 17 15 15 18
37 36 42 39 32 30 33 35 30 33 36 41 45 47 46 49 47 46 46 46 47 43 40 41 38 39 36 34 34 30 20 18 20 20 19 21 22 19 18 19 16 16 16
21 24 29 32 29 29 29 30 32 34 36 36 36 39 44 46 44 43 47 51 53 48 47 46 47 47 50 48 48 40 33 29 28 24 25 24 24 24 18 20 16 17 14
15 12 15 25 24 20 21 25 28 29 28 28 32 36 41 44 45 48 52 52 47 43 48 51 56 60 59 59 48 43 35 29 26 27 28 27 28 31 26 20 20 22 21
24 16 10 8 14 15 19 23 24 23 20 20 22 26 34 38 43 48 51 51 42 33 38 35 45 48 36 50 46 39 32 28 24 28 29 29 31 32 31 28 26 21 19
Wind_Direction_850mb
207 207 216 216 213 213 211 211 211 211 212 213 210 207 212 213 216 222 225 268 213 221 288 320 260 265 280 287 295 307 314 317 326 330 335 349 318 267 276 316 298 300 311
205 211 210 215 216 216 216 216 216 218 218 221 219 218 215 219 228 232 240 253 233 231 256 303 322 299 294 283 291 301 308 318 324 326 340 338 337 319 298 309 303 316 321
206 211 214 216 217 216 218 219 220 220 222 226 220 224 223 224 228 231 238 242 246 250 267 290 324 326 324 312 304 311 319 318 321 326 329 332 316 321 333 321 302 314 305
210 212 216 218 219 220 221 221 222 223 226 225 219 221 224 223 228 230 230 238 249 268 274 279 299 314 320 335 334 332 327 321 324 327 330 334 330 309 320 332 330 327 311
210 213 217 221 222 222 221 223 224 226 229 227 224 223 226 227 229 230 231 237 244 267 266 270 285 301 305 312 321 326 329 329 328 327 324 336 346 326 320 323 337 347 347
214 217 219 221 223 224 224 224 225 228 230 230 230 230 231 230 228 222 224 237 245 258 264 276 293 301 303 321 311 313 309 316 329 312 314 321 339 329 325 315 323 350 45
211 212 217 220 222 221 224 225 227 229 232 232 235 235 237 235 236 235 238 247 249 254 266 279 286 290 296 307 306 271 262 277 318 301 303 303 336 331 328 318 325 298 228
213 211 219 223 222 224 225 227 229 230 233 235 237 240 241 242 243 244 243 248 253 255 262 271 272 282 286 293 291 296 280 276 307 301 294 300 309 317 325 319 324 306 234
213 210 212 221 224 225 227 228 231 232 235 237 239 241 245 246 247 249 250 251 255 258 260 260 265 276 283 291 299 298 289 285 298 304 311 318 316 327 320 317 317 314 303
214 210 210 218 225 228 230 231 232 234 237 239 239 241 245 250 252 253 254 256 257 259 263 262 267 275 282 291 291 298 290 288 298 296 305 318 346 337 328 321 307 304 308
219 211 211 223 227 228 228 232 232 232 235 234 238 240 242 246 253 255 256 258 263 263 266 270 274 279 286 289 283 287 291 286 292 296 305 293 325 326 320 333 324 324 310
225 216 217 221 220 226 227 231 233 233 234 235 235 239 241 244 248 252 257 261 264 268 271 275 278 282 285 283 287 290 293 292 288 288 295 270 312 320 316 323 321 324 337
225 219 210 218 220 222 229 230 233 234 236 236 236 236 236 239 245 249 255 261 267 272 275 276 280 285 289 293 292 294 294 296 295 299 248 258 290 304 293 322 333 347 1
219 220 211 218 223 224 227 230 232 234 235 235 235 234 236 238 243 250 255 263 268 273 279 279 280 285 294 283 290 289 288 287 321 89 136 194 220 240 339 347 352 11 34
207 221 222 221 224 224 225 230 230 232 234 232 233 233 234 237 243 249 255 261 267 272 276 275 282 298 288 287 293 279 276 294 106 122 139 111 138 10 6 6 37 60 70
224 225 222 219 221 224 224 226 228 229 232 230 229 229 232 236 238 242 246 255 264 268 268 273 286 287 280 286 289 285 270 88 119 135 137 123 87 26 20 62 97 80 62
150 206 213 223 225 224 222 220 225 227 224 224 224 225 225 227 228 235 246 254 260 265 267 273 265 263 268 270 273 280 211 132 126 127 148 128 93 47 47 112 95 73 65
119 186 214 227 230 223 225 223 216 214 212 211 209 212 214 220 228 239 247 250 254 260 264 242 252 256 252 262 249 218 166 147 141 157 144 94 82 79 79 106 92 75 57
209 197 227 244 235 225 222 214 208 202 207 207 206 210 218 227 234 238 241 246 252 250 243 241 247 248 240 233 203 187 169 157 165 154 142 124 99 123 116 99 84 72 60
202 201 193 225 228 223 214 205 205 206 209 213 209 211 220 232 237 237 242 246 245 242 226 229 234 229 222 191 187 181 171 173 180 160 155 148 158 144 124 102 78 72 63
141 142 143 188 199 207 203 204 207 213 223 226 226 232 233 236 242 246 246 244 238 233 217 220 212 209 202 183 175 171 165 172 167 165 163 169 155 140 130 114 100 69 67
116 135 137 163 187 205 208 212 219 227 233 238 240 242 245 247 248 248 246 234 231 227 209 212 200 198 189 182 171 158 175 157 174 161 165 161 148 143 134 126 112 78 74
116 122 141 135 147 172 194 211 218 231 239 243 247 249 250 249 249 243 237 225 224 221 207 205 198 190 182 173 166 172 177 163 168 161 162 158 151 150 137 125 96 82 77
95 121 150 153 155 165 180 194 208 220 233 241 247 251 250 247 242 235 230 226 220 216 207 202 197 190 182 180 174 178 174 167 173 169 163 157 160 162 153 134 116 103 91
57 90 129 161 182 189 196 199 203 212 221 231 241 247 249 245 238 229 226 227 232 236 218 212 200 192 192 188 185 179 173 169 174 172 167 160 162 167 167 155 137 114 104
34 45 64 134 166 192 194 197 205 209 216 237 249 251 243 237 235 234 224 221 226 231 223 241 209 201 206 187 180 176 175 171 176 175 168 163 172 172 167 162 150 135 116